This demonstration page uses our WeatherBlox Daily Observations layout. Learn more.

Left ArrowRight Arrow

39.29038, -76.61219

Hourly Observations for September 25, 2020

Temp ( °F °C ) Dew Point ( °F °C ) Humidity (%) Winds ( mph kmh ) Pressure ( in mb ) Visibility ( mi km ) Precip ( " mm )
12:54 am 00:54 Mostly Cloudy 63 17.2 60 15.6 90 90 SW 5 7 30.04 1017 10 16 0.00 0.00
1:54 am 01:54 Mostly Cloudy 61 16.1 58 14.4 90 90 Calm 30.03 1017 8 13 0.00 0.00
2:54 am 02:54 Cloudy 59 15 57 13.9 93 93 Calm 30.03 1017 8 13 0.00 0.00
3:54 am 03:54 Cloudy with Fog 60 15.6 57 13.9 90 90 Calm 30.04 1017 7 11 0.00 0.00
4:54 am 04:54 Cloudy with Fog 59 15 57 13.9 93 93 Calm 30.04 1017 3 5 0.00 0.00
5:54 am 05:54 Cloudy with Fog 58 14.4 56 13.3 93 93 Calm 30.07 1018 3 4 0.00 0.00
6:21 am 06:21 Cloudy with Fog 60 15.6 58 14.4 93 93 Calm 30.08 1019 3 4 0.00 0.00
6:54 am 06:54 Cloudy with Mist and Fog 61 16.1 59 15 93 93 Calm 30.09 1019 1 2 0.00 0.00
7:01 am 07:01 Cloudy with Mist and Fog 61 16.1 59 15 93 93 Calm 30.09 1019 1 1 0.00 0.00
7:19 am 07:19 Mostly Cloudy with Fog 61 16.1 60 15.6 97 97 Calm 30.10 1019 0 0 0.00 0.00
7:34 am 07:34 Mostly Cloudy with Fog 61 16.1 60 15.6 97 97 Calm 30.10 1019 0 0 0.00 0.00
7:54 am 07:54 Mostly Cloudy with Fog 62 16.7 60 15.6 93 93 Calm 30.10 1019 0 0 0.00 0.00
8:22 am 08:22 Mostly Cloudy with Fog 62 16.7 61 16.1 96 96 Calm 30.10 1019 1 1 0.00 0.00
8:54 am 08:54 Mostly Cloudy with Fog 62 16.7 61 16.1 96 96 SSW 5 7 30.11 1020 1 1 0.00 0.00
9:54 am 09:54 Cloudy with Mist and Fog 63 17.2 61 16.1 93 93 Calm 30.12 1020 2 3 0.00 0.00
10:00 am 10:00 Mostly Cloudy with Mist and Fog 64 17.8 61 16.1 90 90 SSW 3 6 30.13 1020 3 5 0.00 0.00
10:39 am 10:39 Cloudy 66 18.9 60 15.6 81 81 Calm 30.13 1020 7 11 0.00 0.00
10:54 am 10:54 Cloudy 67 19.4 60 15.6 79 79 SSW 3 6 30.14 1021 7 11 0.00 0.00
11:54 am 11:54 Cloudy 68 20 59 15 73 73 SSE 5 7 30.13 1020 7 11 0.00 0.00
12:54 pm 12:54 Cloudy 69 20.6 59 15 70 70 S 6 9 30.11 1020 9 14 0.00 0.00
1:54 pm 13:54 Mostly Cloudy 70 21.1 58 14.4 66 66 SSW 7 11 30.10 1019 10 16 0.00 0.00
2:54 pm 14:54 Mostly Cloudy 71 21.7 56 13.3 59 59 WSW 5 7 30.08 1019 10 16 0.00 0.00
3:54 pm 15:54 Mostly Cloudy 70 21.1 57 13.9 64 64 S 7 11 30.09 1019 10 16 0.00 0.00
4:54 pm 16:54 Mostly Cloudy 70 21.1 58 14.4 66 66 S 3 6 30.09 1019 10 16 0.00 0.00
5:54 pm 17:54 Mostly Cloudy with Light Rain 68 20 58 14.4 70 70 SSW 3 6 30.09 1019 10 16 0.00 0.00
6:54 pm 18:54 Mostly Cloudy 66 18.9 60 15.6 81 81 SSE 3 6 30.09 1019 10 16 0.00 0.00
7:54 pm 19:54 Mostly Cloudy with Light Rain 66 18.9 60 15.6 81 81 SSE 3 6 30.10 1019 10 16 0.00 0.00
8:54 pm 20:54 Cloudy 65 18.3 60 15.6 84 84 Calm 30.09 1019 10 16 0.00 0.00
9:54 pm 21:54 Cloudy 65 18.3 61 16.1 87 87 Calm 30.08 1019 10 16 0.00 0.00
10:54 pm 22:54 Cloudy 65 18.3 62 16.7 90 90 ESE 3 6 30.08 1019 10 16 0.00 0.00
11:54 pm 23:54 Cloudy 65 18.3 62 16.7 90 90 Calm 30.09 1019 7 11 0.00 0.00

Powered by AerisWeather